Regional Weather Roundup
Issued by NWS

Home | Current Version | Previous Version | Text Only | Print | Product List | Glossary On
Versions: 1 2 3 4 5 6 7 8 9 10 11 12 13 14 15 16 17 18 19 20 21 22 23 24 25 26 27 28 29 30 31 32 33 34 35 36 37 38 39 40 41 42 43 44 45 46 47 48 49 50
000
ASUS45 KSLC 210910
RWRUT

UTAH REGIONAL WEATHER ROUNDUP
NATIONAL WEATHER SERVICE SALT LAKE CITY UT
300 AM MDT SUN SEP 21 2014

UTZ001>011-023>025-211000-

NORTHERN UTAH

CITY           SKY/WX    TMP DP  RH WIND       PRES   REMARKS
HILL AFB       CLOUDY    65  39  38 SE16      30.11F
LOGAN          CLEAR     53  50  89 SE3       30.13S
OGDEN          CLOUDY    64  40  41 S9        30.08F
PROVO AIRPORT  MOCLDY    63  48  59 CALM      30.11F
SALT LAKE CITY CLOUDY    66  49  54 CALM      30.07S
VERNAL         CLEAR     59  35  40 W7        30.16S
WENDOVER       CLOUDY    72  39  30 SW15      30.09S
HEBER CITY     MOCLDY    52  45  76 SE3       30.18S
WEST JORDAN    CLEAR     64  43  45 CALM      30.10F

$$

UTZ012>022-026-027-211000-

SOUTHERN UTAH

CITY           SKY/WX    TMP DP  RH WIND       PRES   REMARKS
BRYCE CANYON   LGT RAIN  54  51  90 NE10      30.32F
CEDAR CITY     CLOUDY    59  55  87 NW8       30.15F
MILFORD        LGT RAIN  62  57  83 N7        30.14F
MOAB/CYNLANDS  LGT RAIN  74  50  42 NW10      30.06R
PRICE          MOCLDY    72  33  24 NE9       30.15S
ST GEORGE      CLOUDY    73  57  56 CALM      30.00F
KANAB          MOCLDY    64  54  68 N7        30.14F

$$

REGIONAL REPORTS     COLORADO/ARIZONA

CITY           SKY/WX    TMP DP  RH WIND       PRES   REMARKS
CRAIG, CO      CLEAR     41  35  79 CALM      30.25F
GRAND JUNCTION PTCLDY    71  41  33 E13       30.11S
RIFLE          CLEAR     57  42  57 CALM      30.19S
MONTROSE       MOCLDY    69  46  43 SE5       30.22R
CORTEZ         RAIN      60  56  86 NE14      30.27R
PAGE, AZ       CLOUDY    74  51  44 NW3       30.08F
GRAND CANYON   CLOUDY    60  53  77 E3        30.24S
KINGMAN        CLOUDY    77  56  48 S7        30.00R
FLAGSTAFF      PTCLDY    56  53  90 SW5       30.26F

$$

REGIONAL REPORTS    NEVADA/IDAHO/WYOMING

CITY           SKY/WX    TMP DP  RH WIND       PRES   REMARKS
LAS VEGAS, NV  MOCLDY    77  59  53 CALM      29.90S
ELY            LGT RAIN  56  51  84 CALM      30.24R
ELKO           CLOUDY    61  50  67 SW9       30.19F
POCATELLO, ID  CLEAR     51  46  83 CALM      30.13F
BURLEY         MOCLDY    53  47  79 CALM      30.10S
EVANSTON, WY   PTCLDY    56  32  40 E8        30.30R
ROCK SPRINGS   CLEAR     51  37  58 NE12      30.32F

$$


USA.gov is the U.S. government's official web portal to all federal, state and local government web resources and services.